Date String (YYYY-MM-DD hh:mm:ss) UTC,Instrument flags,absolute air pressure of the measurement (hPa),sample flow rate (lpm),inlet stack bypass flow (lpm),air temperature of the measurement (°C),ambient temperature measured by the external sensor (°C),aerosol sample conditioner tube jacket temperature (°C),OPC LED temperature (°C),internal box temperature (°C),relative humidity of the measurement (%),span deviation,mass concentration of particles derived from Lorenz-Mie calculation of OPC scattering (μg/m³),mass concentration of particles derived from Lorenz-Mie calculation of OPC scattering (μg/m³),mass concentration of particles derived from Lorenz-Mie calculation of OPC scattering (μg/m³)
DateTimeUTC,F1_M11,P_M11,Q1_M11,Q2_M11,T1_M11,T2_M11,T3_M11,T4_M11,T5_M11,U1_M11,ZSPAN_M11,X2_M11,X0_M11,X1_M11
2023-07-18 11:00:00,SystemResetWarning,0831.4,5.02,000.00,029.4,025.6,000.0,037.6,030.8,15.1,0000.0,0004.31,0009.92,0003.83
2023-07-18 11:01:00,SystemResetWarning,0831.3,5.00,000.00,029.3,025.5,000.0,037.6,030.6,14.9,0000.0,0004.36,0009.53,0003.83
2023-07-18 11:02:00,SystemResetWarning,0831.3,5.00,000.00,029.2,025.8,000.0,037.6,030.5,14.9,0000.0,0004.43,0008.78,0003.84
2023-07-18 11:03:00,SystemResetWarning,0831.4,5.00,000.00,029.2,026.2,000.0,037.7,030.6,14.9,0000.0,0004.45,0008.38,0003.86
2023-07-18 11:04:00,SystemResetWarning,0831.4,5.00,000.00,029.2,026.6,000.0,037.7,030.6,15.3,0000.0,0004.50,0008.46,0003.90
2023-07-18 11:05:00,SystemResetWarning,0831.4,5.00,000.00,029.2,026.9,000.0,037.7,030.7,15.3,0000.0,0004.54,0008.33,0003.93
2023-07-18 11:06:00,SystemResetWarning,0831.4,5.00,000.00,029.2,027.2,000.0,037.7,030.8,15.0,0000.0,0004.55,0008.05,0003.95
2023-07-18 11:07:00,SystemResetWarning,0831.4,4.99,000.00,029.2,027.4,000.0,037.7,030.8,14.9,0000.0,0004.53,0008.09,0003.96
2023-07-18 11:08:00,SystemResetWarning,0831.5,5.00,000.00,029.3,027.6,000.0,037.7,030.9,14.5,0000.0,0004.52,0008.10,0003.96
2023-07-18 11:09:00,SystemResetWarning,0831.5,5.01,000.00,029.3,027.8,000.0,037.7,030.9,14.5,0000.0,0004.56,0008.34,0003.98
2023-07-18 11:10:00,SystemResetWarning,0831.5,5.01,000.00,029.3,028.0,000.0,037.8,031.0,14.6,0000.0,0004.63,0008.77,0004.03
2023-07-18 11:11:00,SystemResetWarning,0831.5,5.00,000.00,029.4,028.1,000.0,037.8,031.0,14.6,0000.0,0004.65,0008.60,0004.05
2023-07-18 11:12:00,SystemResetWarning,0831.6,5.00,000.00,029.4,028.2,000.0,037.8,031.1,15.0,0000.0,0004.67,0009.78,0004.06
2023-07-18 11:13:00,SystemResetWarning,0831.5,4.99,000.00,029.4,028.3,000.0,037.8,031.1,14.9,0000.0,0004.63,0010.40,0004.07
2023-07-18 11:14:00,SystemResetWarning,0831.5,4.98,000.00,029.5,027.0,000.0,037.7,031.0,15.1,0000.0,0004.63,0010.72,0004.06
2023-07-18 11:15:00,SystemResetWarning,0831.5,5.02,000.00,029.4,025.5,000.0,037.6,030.8,14.8,0000.0,0004.61,0010.73,0004.04
2023-07-18 11:16:00,SystemResetWarning,0831.5,5.01,000.00,029.3,025.5,000.0,037.6,030.6,14.9,0000.0,0004.61,0011.12,0004.03
2023-07-18 11:17:00,SystemResetWarning,0831.5,5.00,000.00,029.2,025.8,000.0,037.6,030.5,15.0,0000.0,0004.62,0011.18,0004.03
2023-07-18 11:18:00,SystemResetWarning,0831.5,5.00,000.00,029.2,026.2,000.0,037.7,030.6,14.9,0000.0,0004.59,0011.14,0004.02
2023-07-18 11:19:00,SystemResetWarning,0831.6,5.00,000.00,029.2,026.6,000.0,037.7,030.6,15.0,0000.0,0004.59,0011.28,0004.02
2023-07-18 11:20:00,SystemResetWarning,0831.6,5.00,000.00,029.2,026.9,000.0,037.7,030.7,15.4,0000.0,0004.59,0011.50,0004.01
2023-07-18 11:21:00,SystemResetWarning,0831.6,5.00,000.00,029.2,027.2,000.0,037.7,030.8,15.4,0000.0,0004.56,0011.39,0003.98
2023-07-18 11:22:00,SystemResetWarning,0831.6,5.00,000.00,029.2,027.5,000.0,037.7,030.8,15.3,0000.0,0004.52,0011.16,0003.95
2023-07-18 11:23:00,SystemResetWarning,0831.6,5.00,000.00,029.3,027.7,000.0,037.7,030.9,15.3,0000.0,0004.53,0011.58,0003.95
2023-07-18 11:24:00,SystemResetWarning,0831.7,5.00,000.00,029.3,027.8,000.0,037.7,030.9,15.3,0000.0,0004.53,0010.91,0003.95
2023-07-18 11:25:00,SystemResetWarning,0831.7,5.00,000.00,029.3,028.0,000.0,037.7,031.0,15.2,0000.0,0004.55,0010.24,0003.96
2023-07-18 11:26:00,SystemResetWarning,0831.7,5.01,000.00,029.4,028.1,000.0,037.8,031.0,15.0,0000.0,0004.55,0010.95,0003.98
2023-07-18 11:27:00,SystemResetWarning,0831.7,5.01,000.00,029.4,028.2,000.0,037.8,031.1,15.0,0000.0,0004.55,0010.62,0003.97
2023-07-18 11:28:00,SystemResetWarning,0831.7,5.00,000.00,029.4,028.3,000.0,037.8,031.1,15.0,0000.0,0004.56,0010.46,0003.98
2023-07-18 11:29:00,SystemResetWarning,0831.7,5.00,000.00,029.5,028.4,000.0,037.8,031.2,14.9,0000.0,0004.57,0010.51,0003.99
2023-07-18 11:30:00,SystemResetWarning,0831.7,4.98,000.00,029.5,027.0,000.0,037.8,031.0,14.9,0000.0,0004.59,0011.05,0004.00
2023-07-18 11:31:00,SystemResetWarning,0831.6,5.02,000.00,029.4,025.6,000.0,037.6,030.8,14.8,0000.0,0004.63,0011.55,0004.03
2023-07-18 11:32:00,SystemResetWarning,0831.7,5.01,000.00,029.4,025.6,000.0,037.6,030.7,14.8,0000.0,0004.68,0011.41,0004.07
2023-07-18 11:33:00,SystemResetWarning,0831.7,5.00,000.00,029.3,025.8,000.0,037.7,030.5,14.8,0000.0,0004.71,0012.09,0004.09
2023-07-18 11:34:00,SystemResetWarning,0831.7,5.00,000.00,029.2,026.2,000.0,037.7,030.6,14.9,0000.0,0004.73,0012.30,0004.12
2023-07-18 11:35:00,SystemResetWarning,0831.7,5.00,000.00,029.2,026.6,000.0,037.7,030.7,14.9,0000.0,0004.75,0012.76,0004.14
2023-07-18 11:36:00,SystemResetWarning,0831.7,5.00,000.00,029.2,026.9,000.0,037.7,030.7,14.9,0000.0,0004.78,0012.98,0004.16
2023-07-18 11:37:00,SystemResetWarning,0831.7,5.00,000.00,029.3,027.2,000.0,037.7,030.8,15.2,0000.0,0004.82,0012.42,0004.16
2023-07-18 11:38:00,SystemResetWarning,0831.8,5.00,000.00,029.3,027.5,000.0,037.7,030.9,15.0,0000.0,0004.82,0013.20,0004.17
2023-07-18 11:39:00,SystemResetWarning,0831.9,5.00,000.00,029.3,027.7,000.0,037.8,030.9,15.1,0000.0,0004.84,0013.77,0004.17
2023-07-18 11:40:00,SystemResetWarning,0832.2,5.00,000.00,029.3,027.8,000.0,037.8,031.0,15.0,0000.0,0004.87,0013.97,0004.17
2023-07-18 11:41:00,SystemResetWarning,0832.2,5.00,000.00,029.4,028.0,000.0,037.8,031.0,14.9,0000.0,0004.91,0014.28,0004.19
2023-07-18 11:42:00,SystemResetWarning,0832.2,5.00,000.00,029.4,028.1,000.0,037.8,031.1,14.8,0000.0,0004.90,0013.93,0004.19
2023-07-18 11:43:00,SystemResetWarning,0832.0,5.00,000.00,029.4,028.2,000.0,037.8,031.1,14.5,0000.0,0004.85,0014.47,0004.19
2023-07-18 11:44:00,SystemResetWarning,0831.8,5.00,000.00,029.5,028.3,000.0,037.8,031.1,14.5,0000.0,0004.87,0014.89,0004.18
2023-07-18 11:45:00,SystemResetWarning,0831.8,4.98,000.00,029.5,026.9,000.0,037.8,031.0,14.5,0000.0,0004.85,0014.11,0004.17
2023-07-18 11:46:00,SystemResetWarning,0831.9,5.01,000.00,029.4,025.6,000.0,037.6,030.8,15.1,0000.0,0004.84,0013.15,0004.16
2023-07-18 11:47:00,SystemResetWarning,0832.2,5.01,000.00,029.3,025.6,000.0,037.6,030.6,15.4,0000.0,0004.84,0013.77,0004.16
2023-07-18 11:48:00,SystemResetWarning,0831.9,5.00,000.00,029.2,025.9,000.0,037.6,030.5,15.1,0000.0,0004.84,0013.88,0004.16
2023-07-18 11:49:00,SystemResetWarning,0831.8,4.99,000.00,029.2,026.3,000.0,037.7,030.6,14.9,0000.0,0004.87,0013.79,0004.18
2023-07-18 11:50:00,SystemResetWarning,0831.9,5.00,000.00,029.2,026.6,000.0,037.7,030.7,15.1,0000.0,0004.87,0013.50,0004.18
2023-07-18 11:51:00,SystemResetWarning,0831.9,5.00,000.00,029.2,026.9,000.0,037.7,030.7,14.9,0000.0,0004.87,0013.52,0004.18
2023-07-18 11:52:00,SystemResetWarning,0831.9,5.01,000.00,029.2,027.2,000.0,037.7,030.8,14.9,0000.0,0004.86,0012.66,0004.18
2023-07-18 11:53:00,SystemResetWarning,0832.0,5.00,000.00,029.3,027.5,000.0,037.7,030.8,14.9,0000.0,0004.86,0012.50,0004.19
2023-07-18 11:54:00,SystemResetWarning,0832.1,4.99,000.00,029.3,027.7,000.0,037.7,030.9,14.8,0000.0,0004.87,0011.65,0004.19
2023-07-18 11:55:00,SystemResetWarning,0832.1,4.99,000.00,029.3,027.8,000.0,037.8,031.0,14.8,0000.0,0004.91,0011.02,0004.19
2023-07-18 11:56:00,SystemResetWarning,0832.2,5.01,000.00,029.3,028.0,000.0,037.8,031.0,14.7,0000.0,0004.96,0011.04,0004.20
2023-07-18 11:57:00,SystemResetWarning,0832.2,5.00,000.00,029.4,028.1,000.0,037.8,031.0,14.7,0000.0,0004.97,0011.31,0004.21
2023-07-18 11:58:00,SystemResetWarning,0832.2,5.00,000.00,029.4,028.2,000.0,037.8,031.1,15.1,0000.0,0005.00,0010.83,0004.22
2023-07-18 11:59:00,SystemResetWarning,0832.2,5.01,000.00,029.5,028.3,000.0,037.8,031.1,14.9,0000.0,0004.99,0010.50,0004.23
